Location: Westerlo
(51.0830°N, 4.9170°E)
Time: 08:55:16
(UTC+02:00)

ISS - Visible Passes

Search period start: 20 October 2020 00:00
Search period end: 29 October 2020 23:00
Orbit: 418 x 419 km, 51.6° (Epoch: 20 October)

Date Brightness Start Highest point End Pass type
(mag) Time Alt. Az. Time Alt. Az. Time Alt. Az.
22 Oct -0.9 07:39:56 10° S 07:42:19 18° SE 07:44:44 10° E visible
23 Oct -0.8 06:53:16 10° SSE 06:54:48 13° SE 06:56:20 10° ESE visible
24 Oct -2.2 07:40:13 10° SW 07:43:20 36° SSE 07:46:27 10° E visible
25 Oct -1.8 05:52:52 10° SSW 05:55:43 26° SSE 05:58:34 10° E visible
26 Oct -1.4 05:07:11 16° SSE 05:08:09 18° SE 05:10:32 10° E visible
26 Oct -3.4 06:41:10 10° WSW 06:44:29 64° SSE 06:47:50 10° E visible
27 Oct -0.5 04:21:45 11° ESE 04:21:45 11° ESE 04:22:06 10° ESE visible
27 Oct -3.0 05:54:43 19° SW 05:56:48 48° SSE 06:00:04 10° E visible
28 Oct -2.5 05:09:09 35° SSE 05:09:09 35° SSE 05:12:15 10° E visible
28 Oct -3.8 06:42:23 10° W 06:45:45 88° NNW 06:49:08 10° E visible
29 Oct -0.7 04:23:31 15° E 04:23:31 15° E 04:24:22 10° E visible
29 Oct -3.8 05:56:28 30° WSW 05:58:01 80° SSE 06:01:22 10° E visible
